Time,TemperatureF,DewpointF,PressureIn,WindDirection,WindDirectionDegrees,WindSpeedMPH,WindSpeedGustMPH,Humidity,HourlyPrecipIn,Conditions,Clouds,dailyrainin,SoftwareType,DateUTC
2013-03-07 00:03:00,44.0,-99.9,29.94,SE,125,6.0,10.0,-999,-99.99,,,-99.99,,2013-03-07 08:03:00,
2013-03-07 00:12:00,44.0,-99.9,29.95,SE,135,7.0,10.0,-999,-99.99,,,-99.99,,2013-03-07 08:12:00,
2013-03-07 00:23:00,44.0,-99.9,29.95,SE,127,6.0,11.0,-999,-99.99,,,-99.99,,2013-03-07 08:23:00,
2013-03-07 00:34:00,44.0,-99.9,29.95,ESE,122,10.0,13.0,-999,-99.99,,,-99.99,,2013-03-07 08:34:00,
2013-03-07 00:45:00,44.0,-99.9,29.95,SE,127,10.0,18.0,-999,-99.99,,,-99.99,,2013-03-07 08:45:00,
2013-03-07 00:54:00,44.0,-99.9,29.96,SE,130,9.0,14.0,-999,-99.99,,,-99.99,,2013-03-07 08:54:00,
2013-03-07 01:03:00,44.0,-99.9,29.96,SE,132,11.0,16.0,-999,-99.99,,,-99.99,,2013-03-07 09:03:00,
2013-03-07 01:14:00,44.0,-99.9,29.96,ESE,120,11.0,14.0,-999,-99.99,,,-99.99,,2013-03-07 09:14:00,
2013-03-07 01:24:00,44.0,-99.9,29.96,SE,131,10.0,14.0,-999,-99.99,,,-99.99,,2013-03-07 09:24:00,
2013-03-07 01:33:00,44.0,-99.9,29.96,SE,124,10.0,14.0,-999,-99.99,,,-99.99,,2013-03-07 09:33:00,
2013-03-07 01:43:00,44.0,-99.9,29.97,SE,130,10.0,15.0,-999,-99.99,,,-99.99,,2013-03-07 09:43:00,
2013-03-07 01:54:00,44.0,-99.9,29.98,SE,134,9.0,12.0,-999,-99.99,,,-99.99,,2013-03-07 09:54:00,
2013-03-07 02:04:00,44.0,-99.9,29.98,SE,128,10.0,13.0,-999,-99.99,,,-99.99,,2013-03-07 10:04:00,
2013-03-07 02:14:00,44.0,-99.9,29.98,SE,130,12.0,15.0,-999,-99.99,,,-99.99,,2013-03-07 10:14:00,
2013-03-07 02:24:00,43.0,-99.9,29.98,SE,132,12.0,15.0,-999,-99.99,,,-99.99,,2013-03-07 10:24:00,
2013-03-07 02:33:00,43.0,-99.9,29.98,SE,130,13.0,17.0,-999,-99.99,,,-99.99,,2013-03-07 10:33:00,
2013-03-07 02:43:00,43.0,-99.9,29.98,SE,137,12.0,15.0,-999,-99.99,,,-99.99,,2013-03-07 10:43:00,
2013-03-07 02:53:00,43.0,-99.9,29.98,SE,131,12.0,16.0,-999,-99.99,,,-99.99,,2013-03-07 10:53:00,
2013-03-07 03:04:00,43.0,-99.9,29.98,SE,141,12.0,15.0,-999,-99.99,,,-99.99,,2013-03-07 11:04:00,
2013-03-07 03:12:00,43.0,-99.9,29.98,SE,143,10.0,14.0,-999,-99.99,,,-99.99,,2013-03-07 11:12:00,
2013-03-07 03:23:00,43.0,-99.9,29.98,SSE,149,15.0,19.0,-999,-99.99,,,-99.99,,2013-03-07 11:23:00,
2013-03-07 03:34:00,43.0,-99.9,29.98,SSE,148,13.0,17.0,-999,-99.99,,,-99.99,,2013-03-07 11:34:00,
2013-03-07 03:44:00,43.0,-99.9,29.98,SE,141,9.0,11.0,-999,-99.99,,,-99.99,,2013-03-07 11:44:00,
2013-03-07 03:55:00,43.0,-99.9,29.98,SE,134,8.0,12.0,-999,-99.99,,,-99.99,,2013-03-07 11:55:00,
2013-03-07 04:04:00,43.0,-99.9,29.98,SE,131,8.0,12.0,-999,-99.99,,,-99.99,,2013-03-07 12:04:00,
2013-03-07 04:13:00,43.0,-99.9,29.99,SSE,149,10.0,14.0,-999,-99.99,,,-99.99,,2013-03-07 12:13:00,
2013-03-07 04:23:00,43.0,-99.9,29.99,SSE,148,11.0,15.0,-999,-99.99,,,-99.99,,2013-03-07 12:23:00,
2013-03-07 04:34:00,43.0,-99.9,30.00,SSE,148,13.0,17.0,-999,-99.99,,,-99.99,,2013-03-07 12:34:00,
2013-03-07 04:43:00,43.0,-99.9,30.00,SSE,149,11.0,14.0,-999,-99.99,,,-99.99,,2013-03-07 12:43:00,
2013-03-07 04:53:00,43.0,-99.9,30.00,SSE,152,9.0,13.0,-999,-99.99,,,-99.99,,2013-03-07 12:53:00,
2013-03-07 05:03:00,43.0,-99.9,30.00,SE,142,11.0,13.0,-999,-99.99,,,-99.99,,2013-03-07 13:03:00,
2013-03-07 05:13:00,43.0,-99.9,30.00,SSE,149,6.0,10.0,-999,-99.99,,,-99.99,,2013-03-07 13:13:00,
2013-03-07 05:23:00,43.0,-99.9,30.01,SE,144,9.0,12.0,-999,-99.99,,,-99.99,,2013-03-07 13:23:00,
2013-03-07 05:33:00,43.0,-99.9,30.01,SE,140,11.0,15.0,-999,-99.99,,,-99.99,,2013-03-07 13:33:00,
2013-03-07 05:42:00,43.0,-99.9,30.01,SE,124,7.0,12.0,-999,-99.99,,,-99.99,,2013-03-07 13:42:00,
2013-03-07 05:53:00,43.0,-99.9,30.01,SE,146,8.0,12.0,-999,-99.99,,,-99.99,,2013-03-07 13:53:00,
2013-03-07 06:02:00,43.0,-99.9,30.01,SE,136,10.0,16.0,-999,-99.99,,,-99.99,,2013-03-07 14:02:00,
2013-03-07 06:12:00,43.0,-99.9,30.02,SE,144,11.0,14.0,-999,-99.99,,,-99.99,,2013-03-07 14:12:00,
2013-03-07 06:23:00,43.0,-99.9,30.02,SE,141,9.0,14.0,-999,-99.99,,,-99.99,,2013-03-07 14:23:00,
2013-03-07 06:34:00,43.0,-99.9,30.02,SE,143,9.0,15.0,-999,-99.99,,,-99.99,,2013-03-07 14:34:00,
2013-03-07 06:43:00,43.0,-99.9,30.02,SE,146,9.0,12.0,-999,-99.99,,,-99.99,,2013-03-07 14:43:00,
2013-03-07 06:54:00,43.0,-99.9,30.03,SE,139,9.0,12.0,-999,-99.99,,,-99.99,,2013-03-07 14:54:00,
2013-03-07 07:03:00,43.0,-99.9,30.03,SE,141,9.0,11.0,-999,-99.99,,,-99.99,,2013-03-07 15:03:00,
2013-03-07 07:13:00,43.0,-99.9,30.03,SE,144,10.0,13.0,-999,-99.99,,,-99.99,,2013-03-07 15:13:00,
2013-03-07 07:23:00,43.0,-99.9,30.03,SE,143,9.0,12.0,-999,-99.99,,,-99.99,,2013-03-07 15:23:00,
2013-03-07 07:33:00,43.0,-99.9,30.03,SE,141,7.0,12.0,-999,-99.99,,,-99.99,,2013-03-07 15:33:00,
2013-03-07 07:43:00,43.0,-99.9,30.04,SE,146,10.0,12.0,-999,-99.99,,,-99.99,,2013-03-07 15:43:00,
2013-03-07 07:53:00,43.0,-99.9,30.04,SSE,151,12.0,14.0,-999,-99.99,,,-99.99,,2013-03-07 15:53:00,
2013-03-07 08:03:00,43.0,-99.9,30.04,SSE,147,13.0,17.0,-999,-99.99,,,-99.99,,2013-03-07 16:03:00,
2013-03-07 08:13:00,43.0,-99.9,30.05,SSE,148,14.0,18.0,-999,-99.99,,,-99.99,,2013-03-07 16:13:00,
2013-03-07 08:24:00,43.0,-99.9,30.05,SSE,147,13.0,17.0,-999,-99.99,,,-99.99,,2013-03-07 16:24:00,
2013-03-07 08:33:00,43.0,-99.9,30.05,SSE,149,13.0,16.0,-999,-99.99,,,-99.99,,2013-03-07 16:33:00,
2013-03-07 08:43:00,43.0,-99.9,30.05,SE,146,11.0,14.0,-999,-99.99,,,-99.99,,2013-03-07 16:43:00,
2013-03-07 08:53:00,44.0,-99.9,30.05,SE,145,11.0,14.0,-999,-99.99,,,-99.99,,2013-03-07 16:53:00,
2013-03-07 09:03:00,44.0,-99.9,30.05,SSE,147,12.0,14.0,-999,-99.99,,,-99.99,,2013-03-07 17:03:00,
2013-03-07 09:12:00,44.0,-99.9,30.06,SE,143,12.0,16.0,-999,-99.99,,,-99.99,,2013-03-07 17:12:00,
2013-03-07 09:23:00,45.0,-99.9,30.06,SSE,147,12.0,17.0,-999,-99.99,,,-99.99,,2013-03-07 17:23:00,
2013-03-07 09:34:00,45.0,-99.9,30.06,SE,141,13.0,16.0,-999,-99.99,,,-99.99,,2013-03-07 17:34:00,
2013-03-07 09:44:00,45.0,-99.9,30.06,SE,142,12.0,16.0,-999,-99.99,,,-99.99,,2013-03-07 17:44:00,
2013-03-07 09:55:00,46.0,-99.9,30.06,SSE,149,11.0,16.0,-999,-99.99,,,-99.99,,2013-03-07 17:55:00,
2013-03-07 10:04:00,45.0,-99.9,30.06,SE,124,8.0,12.0,-999,-99.99,,,-99.99,,2013-03-07 18:04:00,
2013-03-07 10:13:00,46.0,-99.9,30.07,SE,126,8.0,13.0,-999,-99.99,,,-99.99,,2013-03-07 18:13:00,
2013-03-07 10:22:00,46.0,-99.9,30.07,SSE,152,10.0,13.0,-999,-99.99,,,-99.99,,2013-03-07 18:22:00,
2013-03-07 10:33:00,47.0,-99.9,30.07,SE,131,10.0,14.0,-999,-99.99,,,-99.99,,2013-03-07 18:33:00,
2013-03-07 10:43:00,47.0,-99.9,30.07,SE,146,9.0,13.0,-999,-99.99,,,-99.99,,2013-03-07 18:43:00,
2013-03-07 10:53:00,47.0,-99.9,30.07,SE,140,8.0,12.0,-999,-99.99,,,-99.99,,2013-03-07 18:53:00,
2013-03-07 11:03:00,47.0,-99.9,30.06,ESE,118,7.0,9.0,-999,-99.99,,,-99.99,,2013-03-07 19:03:00,
2013-03-07 11:24:00,47.0,-99.9,30.06,ESE,114,9.0,12.0,-999,-99.99,,,-99.99,,2013-03-07 19:24:00,
2013-03-07 11:35:00,48.0,-99.9,30.06,SE,126,8.0,11.0,-999,-99.99,,,-99.99,,2013-03-07 19:35:00,
2013-03-07 11:44:00,49.0,-99.9,30.06,ESE,121,9.0,12.0,-999,-99.99,,,-99.99,,2013-03-07 19:44:00,
2013-03-07 11:53:00,49.0,-99.9,30.06,ESE,114,10.0,13.0,-999,-99.99,,,-99.99,,2013-03-07 19:53:00,
2013-03-07 12:02:00,49.0,-99.9,30.06,ESE,116,9.0,13.0,-999,-99.99,,,-99.99,,2013-03-07 20:02:00,
2013-03-07 12:14:00,49.0,-99.9,30.06,ESE,114,11.0,13.0,-999,-99.99,,,-99.99,,2013-03-07 20:14:00,
2013-03-07 12:23:00,49.0,-99.9,30.06,ESE,119,11.0,13.0,-999,-99.99,,,-99.99,,2013-03-07 20:23:00,
2013-03-07 12:34:00,50.0,-99.9,30.06,ESE,120,9.0,13.0,-999,-99.99,,,-99.99,,2013-03-07 20:34:00,
2013-03-07 12:43:00,50.0,-99.9,30.06,ESE,116,10.0,14.0,-999,-99.99,,,-99.99,,2013-03-07 20:43:00,
2013-03-07 12:54:00,50.0,-99.9,30.06,ESE,120,9.0,12.0,-999,-99.99,,,-99.99,,2013-03-07 20:54:00,
2013-03-07 13:03:00,50.0,-99.9,30.06,ESE,121,6.0,13.0,-999,-99.99,,,-99.99,,2013-03-07 21:03:00,
2013-03-07 13:13:00,51.0,-99.9,30.05,ESE,115,6.0,11.0,-999,-99.99,,,-99.99,,2013-03-07 21:13:00,
2013-03-07 13:23:00,51.0,-99.9,30.05,ESE,111,8.0,10.0,-999,-99.99,,,-99.99,,2013-03-07 21:23:00,
2013-03-07 13:33:00,51.0,-99.9,30.04,ESE,118,8.0,11.0,-999,-99.99,,,-99.99,,2013-03-07 21:33:00,
2013-03-07 13:43:00,52.0,-99.9,30.04,ESE,118,7.0,11.0,-999,-99.99,,,-99.99,,2013-03-07 21:43:00,
2013-03-07 13:53:00,51.0,-99.9,30.04,ESE,120,6.0,11.0,-999,-99.99,,,-99.99,,2013-03-07 21:53:00,
2013-03-07 14:02:00,51.0,-99.9,30.04,ESE,118,7.0,11.0,-999,-99.99,,,-99.99,,2013-03-07 22:02:00,
2013-03-07 14:12:00,52.0,-99.9,30.04,SE,124,8.0,10.0,-999,-99.99,,,-99.99,,2013-03-07 22:12:00,
2013-03-07 14:23:00,52.0,-99.9,30.04,ESE,114,7.0,11.0,-999,-99.99,,,-99.99,,2013-03-07 22:23:00,
2013-03-07 14:33:00,52.0,-99.9,30.03,ESE,107,6.0,9.0,-999,-99.99,,,-99.99,,2013-03-07 22:33:00,
2013-03-07 14:44:00,52.0,-99.9,30.03,ESE,122,4.0,11.0,-999,-99.99,,,-99.99,,2013-03-07 22:44:00,
2013-03-07 14:55:00,52.0,-99.9,30.03,ESE,122,6.0,9.0,-999,-99.99,,,-99.99,,2013-03-07 22:55:00,
2013-03-07 15:03:00,53.0,-99.9,30.03,ESE,119,6.0,8.0,-999,-99.99,,,-99.99,,2013-03-07 23:03:00,
2013-03-07 15:13:00,53.0,-99.9,30.03,ESE,121,4.0,9.0,-999,-99.99,,,-99.99,,2013-03-07 23:13:00,
2013-03-07 15:22:00,53.0,-99.9,30.03,ESE,104,6.0,9.0,-999,-99.99,,,-99.99,,2013-03-07 23:22:00,
2013-03-07 15:35:00,53.0,-99.9,30.03,ESE,116,5.0,8.0,-999,-99.99,,,-99.99,,2013-03-07 23:35:00,
2013-03-07 15:44:00,54.0,-99.9,30.03,East,95,5.0,7.0,-999,-99.99,,,-99.99,,2013-03-07 23:44:00,
2013-03-07 15:54:00,54.0,-99.9,30.03,SE,124,3.0,6.0,-999,-99.99,,,-99.99,,2013-03-07 23:54:00,
2013-03-07 16:05:00,53.0,-99.9,30.03,SE,139,5.0,7.0,-999,-99.99,,,-99.99,,2013-03-08 00:05:00,
2013-03-07 16:13:00,53.0,-99.9,30.03,SE,145,4.0,5.0,-999,-99.99,,,-99.99,,2013-03-08 00:13:00,
2013-03-07 16:23:00,53.0,-99.9,30.02,SSE,147,3.0,4.0,-999,-99.99,,,-99.99,,2013-03-08 00:23:00,
2013-03-07 16:35:00,54.0,-99.9,30.02,SSE,152,2.0,4.0,-999,-99.99,,,-99.99,,2013-03-08 00:35:00,
2013-03-07 16:44:00,55.0,-99.9,30.02,SSW,198,1.0,1.0,-999,-99.99,,,-99.99,,2013-03-08 00:44:00,
2013-03-07 16:54:00,54.0,-99.9,30.02,South,169,2.0,2.0,-999,-99.99,,,-99.99,,2013-03-08 00:54:00,
2013-03-07 17:02:00,54.0,-99.9,30.02,SSE,166,1.0,2.0,-999,-99.99,,,-99.99,,2013-03-08 01:02:00,
2013-03-07 17:12:00,53.0,-99.9,30.02,West,264,2.0,2.0,-999,-99.99,,,-99.99,,2013-03-08 01:12:00,
2013-03-07 17:22:00,53.0,-99.9,30.02,West,260,1.0,2.0,-999,-99.99,,,-99.99,,2013-03-08 01:22:00,
2013-03-07 17:42:00,52.0,-99.9,30.01,West,271,3.0,4.0,-999,-99.99,,,-99.99,,2013-03-08 01:42:00,
2013-03-07 17:52:00,52.0,-99.9,30.02,WNW,294,7.0,7.0,-999,-99.99,,,-99.99,,2013-03-08 01:52:00,
2013-03-07 18:02:00,51.0,-99.9,30.02,WNW,297,9.0,11.0,-999,-99.99,,,-99.99,,2013-03-08 02:02:00,
2013-03-07 18:12:00,50.0,-99.9,30.03,WNW,295,10.0,11.0,-999,-99.99,,,-99.99,,2013-03-08 02:12:00,
2013-03-07 18:22:00,49.0,-99.9,30.03,WNW,288,9.0,10.0,-999,-99.99,,,-99.99,,2013-03-08 02:22:00,
2013-03-07 18:32:00,49.0,-99.9,30.03,WNW,286,7.0,10.0,-999,-99.99,,,-99.99,,2013-03-08 02:32:00,
2013-03-07 18:42:00,48.0,-99.9,30.04,WNW,290,6.0,9.0,-999,-99.99,,,-99.99,,2013-03-08 02:42:00,
2013-03-07 18:53:00,48.0,-99.9,30.04,WNW,295,7.0,9.0,-999,-99.99,,,-99.99,,2013-03-08 02:53:00,
2013-03-07 19:02:00,48.0,-99.9,30.04,NW,315,4.0,8.0,-999,-99.99,,,-99.99,,2013-03-08 03:02:00,
2013-03-07 19:12:00,48.0,-99.9,30.05,WNW,301,5.0,7.0,-999,-99.99,,,-99.99,,2013-03-08 03:12:00,
2013-03-07 19:22:00,48.0,-99.9,30.05,NW,310,3.0,7.0,-999,-99.99,,,-99.99,,2013-03-08 03:22:00,
2013-03-07 19:33:00,46.0,-99.9,30.05,West,277,2.0,3.0,-999,-99.99,,,-99.99,,2013-03-08 03:33:00,
2013-03-07 19:43:00,45.0,-99.9,30.05,West,265,-999.0,2.0,-999,-99.99,,,-99.99,,2013-03-08 03:43:00,
2013-03-07 19:53:00,45.0,-99.9,30.06,WNW,298,0.0,2.0,-999,-99.99,,,-99.99,,2013-03-08 03:53:00,
2013-03-07 20:02:00,46.0,-99.9,30.06,West,277,0.0,1.0,-999,-99.99,,,-99.99,,2013-03-08 04:02:00,
2013-03-07 20:12:00,46.0,-99.9,30.06,North,5,0.0,2.0,-999,-99.99,,,-99.99,,2013-03-08 04:12:00,
2013-03-07 20:22:00,45.0,-99.9,30.06,SSE,148,-999.0,1.0,-999,-99.99,,,-99.99,,2013-03-08 04:22:00,
2013-03-07 20:32:00,45.0,-99.9,30.06,SSE,150,2.0,2.0,-999,-99.99,,,-99.99,,2013-03-08 04:32:00,
2013-03-07 20:42:00,44.0,-99.9,30.06,SW,219,2.0,3.0,-999,-99.99,,,-99.99,,2013-03-08 04:42:00,
2013-03-07 20:52:00,44.0,-99.9,30.07,WSW,252,0.0,2.0,-999,-99.99,,,-99.99,,2013-03-08 04:52:00,
2013-03-07 21:02:00,43.0,-99.9,30.07,WNW,297,-999.0,1.0,-999,-99.99,,,-99.99,,2013-03-08 05:02:00,
2013-03-07 21:12:00,43.0,-99.9,30.07,North,-999,-999.0,-999.0,-999,-99.99,,,-99.99,,2013-03-08 05:12:00,
2013-03-07 21:22:00,43.0,-99.9,30.07,SSE,156,0.0,2.0,-999,-99.99,,,-99.99,,2013-03-08 05:22:00,
2013-03-07 21:33:00,43.0,-99.9,30.07,South,174,1.0,1.0,-999,-99.99,,,-99.99,,2013-03-08 05:33:00,
2013-03-07 21:42:00,42.0,-99.9,30.07,SE,142,-999.0,0.0,-999,-99.99,,,-99.99,,2013-03-08 05:42:00,
2013-03-07 21:52:00,42.0,-99.9,30.07,North,-999,-999.0,-999.0,-999,-99.99,,,-99.99,,2013-03-08 05:52:00,
2013-03-07 22:02:00,42.0,-99.9,30.07,WSW,243,1.0,3.0,-999,-99.99,,,-99.99,,2013-03-08 06:02:00,
2013-03-07 22:11:00,42.0,-99.9,30.07,SE,141,0.0,1.0,-999,-99.99,,,-99.99,,2013-03-08 06:11:00,
2013-03-07 22:22:00,42.0,-99.9,30.07,SSW,192,0.0,2.0,-999,-99.99,,,-99.99,,2013-03-08 06:22:00,
2013-03-07 22:32:00,41.0,-99.9,30.07,SSE,151,-999.0,1.0,-999,-99.99,,,-99.99,,2013-03-08 06:32:00,
2013-03-07 22:42:00,41.0,-99.9,30.07,North,-999,-999.0,-999.0,-999,-99.99,,,-99.99,,2013-03-08 06:42:00,
2013-03-07 22:52:00,41.0,-99.9,30.07,East,95,1.0,1.0,-999,-99.99,,,-99.99,,2013-03-08 06:52:00,
2013-03-07 23:01:00,41.0,-99.9,30.07,North,-999,-999.0,-999.0,-999,-99.99,,,-99.99,,2013-03-08 07:01:00,
2013-03-07 23:11:00,41.0,-99.9,30.07,NNW,340,-999.0,2.0,-999,-99.99,,,-99.99,,2013-03-08 07:11:00,
2013-03-07 23:22:00,40.0,-99.9,30.07,West,273,2.0,4.0,-999,-99.99,,,-99.99,,2013-03-08 07:22:00,
2013-03-07 23:32:00,40.0,-99.9,30.07,NW,325,1.0,2.0,-999,-99.99,,,-99.99,,2013-03-08 07:32:00,
2013-03-07 23:42:00,40.0,-99.9,30.07,NW,314,2.0,3.0,-999,-99.99,,,-99.99,,2013-03-08 07:42:00,
2013-03-07 23:52:00,40.0,-99.9,30.07,NW,316,2.0,3.0,-999,-99.99,,,-99.99,,2013-03-08 07:52:00,